Weather in Srednyaya Usva

Russia / Perm Krai     58°59′50″N   58°55′38″E
temp.,
°C
wind,
m/s
gust,
m/s
humid.,
%
clouds,
%
prec.,
mm/h
press.,
hPa
HPBL,
m
6 march, sat
sat623:00−13wnw6139195 0.2 999464
02:00−16wnw5139358 0.0 1001414
05:00−17w5139377 0.0 1003453
08:00−19w4139581 0.0 1003419
11:00−15w5108861 0.0 1004575
14:00−14w6108692 0.0 1005743
17:00−14wnw5108794 0.1 1006635
20:00−16w5119398 0.0 1008455
7 march, sun
sun723:00−17w4119398 0.1 1009530
02:00−20wsw259884 0.0 1009112
05:00−21wsw229975 0.1 101021
08:00−22wsw229968 0.0 100920
11:00−16w368966 0.1 1009476
14:00−14w248599 0.0 1008698
17:00−14w2486100 0.1 1007727
20:00−19wsw2298100 0.0 100720
8 march, mon
mon823:00−21w1210085 0.1 100720
02:00−22w1110067 0.0 100720
05:00−24wsw1110066 0.0 100720
08:00−23ssw119943 0.0 100620
11:00−16se239266 0.0 1004253
14:00−14e3491100 0.1 1002431
17:00−14ese4793100 0.4 1000575
20:00−15e4996100 0.7 999389
9 march, tue
tue923:00−16e1298100 1.4 99938
02:00−18e119899 0.3 99922
05:00−17e1198100 0.6 100020
08:00−18e1198100 0.2 100034
11:00−14e119198 0.3 1001226
14:00−9ssw1385100 0.1 1002556
17:00−9w3589100 0.7 1004636
20:00−16nw119887 0.1 100620
10 march, wed
wed1023:00−17e119894 0.3 100820
02:00−19e1299100 0.2 100836
05:00−22e1199100 0.3 100920
08:00−22ene1199100 0.2 100926
11:00−18e1090100 0.3 1010272
14:00−14nw1283100 0.1 1010712
17:00−15wnw3490100 0.3 1010528
20:00−24wnw229880 0.0 101128